Flag for Brazil Weather past 2 weeks in Campo Grande, Mato Grosso Do Sul, Brazil

Now
77 °F

Scattered clouds.


Feels Like: 79 °F
Forecast: 71 / 88 °F
Wind: 16 mph from Northeast

Location: Campo Grande Aeroporto

Current Time: Feb 1, 2015 at 8:50:23 AM

Latest Report: Feb 1, 2015 at 8:00 AM


Visibility: N/A

Pressure: 30.01 "Hg

Humidity: 54%

Dew point: 59 °F

Location of Campo GrandeLocation

Historic Weather in Campo Grande — Graph

°F

Campo Grande temperature yesterday

Maximum temperature yesterday: 90 °F (at 1:00 PM)
Minimum temperature yesterday: 72 °F (at 2:00 AM)
Average temperature yesterday: 76 °F

Past Weeks' High & Low Weather Summary

 TemperatureHumidityPressure
High93 °F (Jan 17, 6:00 PM)100% (Jan 22, 8:00 PM)30.07 "Hg (Jan 22, 8:00 PM)
Low34 °F (Jan 22, 11:00 PM)17% (Jan 20, 6:00 PM)29.83 "Hg (Jan 20, 5:00 PM)
Average77 °F74%29.96 "Hg
* Reported Jan 17 8:00 AM — Feb 1 8:00 AM, Campo Grande, Weather by CustomWeather, © 2014

Note: Actual official high and low records may vary slightly from our data, if they occured in-between our weather recording intervals... More about our weather records

Advertising

Campo Grande weather history for previous 24 hours

 ConditionsComfort  
Time TempWeatherWind HumidityBarometerVisibility
8:00 AM
Feb 1
77 °FScattered clouds.16 mph54%30.01 "HgN/A
7:00 AM73 °FSunny.12 mph65%29.98 "Hg10 mi
6:00 AM70 °FClear.8 mph73%29.98 "Hg10 mi
5:00 AM66 °FPassing clouds.No wind94%29.95 "HgN/A
4:00 AM68 °FPassing clouds.2 mph83%29.95 "HgN/A
3:00 AM72 °FPassing clouds.5 mph69%29.95 "HgN/A
2:00 AM73 °FPassing clouds.14 mph69%29.95 "HgN/A
1:00 AM73 °FPassing clouds.9 mph74%29.98 "HgN/A
12:00 AM73 °FPassing clouds.7 mph78%30.01 "HgN/A
11:00 PM
Jan 31
73 °FPassing clouds.5 mph83%30.04 "HgN/A
10:00 PM75 °FPassing clouds.8 mph74%30.01 "HgN/A
9:00 PM72 °FThundershowers. Passing clouds.No wind83%29.98 "HgN/A
8:00 PM73 °FThundershowers. Passing clouds.6 mph83%29.95 "HgN/A
7:00 PM77 °FThundershowers. Scattered clouds.6 mph74%N/AN/A
6:00 PM75 °FThunderstorms. Scattered clouds.6 mph74%29.92 "HgN/A
5:00 PM72 °FThunderstorms. Scattered clouds.2 mph83%29.95 "HgN/A
4:00 PM75 °FThunderstorms. Partly sunny.7 mph83%30.01 "HgN/A
3:00 PM75 °FThunderstorms. Partly sunny.5 mph83%29.98 "HgN/A
2:00 PM81 °FThunderstorms. Partly sunny.6 mph66%29.98 "HgN/A
1:00 PM90 °FPartly sunny.7 mph52%30.04 "HgN/A
12:00 PM88 °FScattered clouds.6 mph59%30.04 "HgN/A
11:00 AM84 °FScattered clouds.8 mph66%30.07 "HgN/A
10:00 AM84 °FSunny.9 mph66%30.07 "Hg10 mi
9:00 AM82 °FSunny.10 mph66%30.04 "Hg10 mi
8:00 AM77 °FSunny.9 mph74%30.04 "Hg10 mi
Weather by CustomWeather, © 2014

See weather overviewHow to use our weather pages